Wind_Speed
14 15 14 14 14 13 13 12 10 9 8 8 7 7 8 7 6 6 8 7 7 8 8 8 8 8 8 8 8 8 9 9 9 9 9 8 7 7 6 6 6 4 3 2
15 15 14 15 16 14 14 14 12 11 12 10 10 11 10 9 8 7 8 8 7 6 7 7 6 6 6 6 6 6 7 8 8 8 8 8 7 6 5 5 4 4 3 3
16 14 15 16 16 15 15 15 14 14 13 13 13 13 13 11 9 9 9 9 7 8 7 7 6 5 5 4 4 4 5 6 6 6 6 6 6 5 5 5 4 3 2 2
17 16 17 17 16 16 16 17 17 16 16 15 16 16 15 13 12 11 10 10 9 8 8 8 7 6 5 4 4 3 4 5 5 5 5 5 5 5 4 4 4 4 3 2
17 17 17 16 16 16 16 17 18 17 18 17 16 16 15 15 14 12 12 12 10 10 9 9 8 8 7 6 6 5 5 5 5 5 4 4 5 5 5 5 5 4 4 4
16 17 17 16 16 17 17 18 18 19 18 17 16 16 15 14 14 12 13 13 12 11 9 9 9 9 8 8 8 8 7 7 7 6 6 5 5 5 5 5 6 6 6 6
16 16 17 17 17 17 18 18 19 19 19 18 17 18 16 15 16 15 14 15 14 13 12 11 10 9 10 10 10 11 11 10 10 9 9 9 8 7 7 7 7 7 7 7
17 16 16 16 16 16 18 20 20 19 19 18 20 20 18 18 18 17 17 17 17 15 14 13 12 11 12 12 13 14 14 13 12 12 12 12 12 11 10 10 10 10 10 10
18 17 17 17 16 17 18 20 20 21 20 21 21 22 21 20 19 18 18 18 18 18 17 16 16 15 15 15 15 16 16 15 14 14 14 15 15 15 14 13 13 13 12 11
18 18 18 18 18 19 20 20 21 22 23 23 22 23 22 21 21 21 20 20 21 21 20 20 20 19 18 18 18 18 17 17 17 16 17 17 17 17 17 16 16 16 15 14
21 22 21 21 21 21 21 23 23 23 24 25 24 23 23 23 22 23 22 23 23 24 23 23 23 22 21 21 21 21 20 19 18 18 18 18 18 19 19 19 19 19 18 17
23 24 24 23 24 23 23 23 24 25 25 26 26 24 23 24 23 24 24 24 25 25 24 23 24 25 24 23 23 23 22 21 20 19 19 19 20 21 21 21 21 21 21 21
26 26 26 25 25 26 25 24 26 26 26 26 28 27 24 25 25 24 25 24 25 26 25 25 25 25 25 25 25 25 24 23 23 22 21 22 22 22 22 23 23 22 22 22
29 29 29 27 26 27 28 28 28 28 28 28 28 27 27 27 27 27 28 27 25 26 25 26 26 26 27 26 26 26 25 25 24 24 24 24 24 24 25 24 24 24 23 23
32 31 31 30 29 29 29 29 28 29 31 32 30 29 29 29 29 29 30 29 27 27 26 27 29 30 30 29 28 28 27 27 27 28 28 27 27 26 27 27 27 27 26 26
34 34 33 33 33 32 31 30 30 30 31 33 33 32 31 30 30 31 31 31 31 30 30 31 32 32 31 31 30 29 29 29 30 30 31 31 31 29 28 28 28 28 28 28
35 35 34 34 34 35 35 33 32 33 33 33 33 33 33 33 32 31 31 32 32 33 33 34 34 31 31 30 31 31 30 30 30 32 33 33 32 31 30 30 30 29 30 30
35 36 36 35 35 36 34 34 35 36 36 34 34 34 34 34 34 33 32 33 33 33 34 34 34 33 32 32 31 31 31 31 31 32 32 32 33 33 32 32 32 31 31 31
36 36 37 38 38 37 35 35 35 37 38 37 37 37 37 36 36 35 34 34 34 34 34 34 32 31 32 32 32 31 32 32 32 33 33 34 34 34 35 34 33 33 33 33
36 36 37 38 39 38 36 36 37 38 39 38 38 39 39 38 37 36 36 36 36 36 35 34 34 34 34 33 32 32 32 32 33 33 34 35 36 37 37 37 36 35 35 36
35 36 37 38 38 38 37 37 36 38 39 37 38 38 38 37 37 37 36 36 37 37 36 35 35 35 34 33 32 32 33 34 35 35 36 37 38 39 39 38 38 38 38 37
35 36 37 37 38 38 37 37 37 37 37 37 37 37 37 37 37 36 36 36 36 36 36 36 35 34 34 34 33 33 34 35 36 36 36 37 37 38 39 39 39 39 39 38
35 36 37 37 37 36 36 36 36 36 36 36 36 37 37 37 37 36 35 35 34 34 35 35 35 35 35 35 35 34 34 35 36 35 35 36 36 37 38 39 39 39 38 38
35 36 36 37 36 36 35 35 36 36 35 35 35 36 36 36 36 36 35 36 36 36 37 35 35 35 36 36 36 36 35 35 35 34 34 35 35 36 37 37 37 37 37 36
34 35 36 36 35 36 35 35 35 36 35 35 35 35 36 36 36 36 36 36 36 35 35 36 36 36 37 37 37 36 36 36 35 34 34 34 35 35 35 36 36 36 35 36
32 34 35 35 35 36 36 35 37 37 36 36 35 35 33 33 34 34 34 34 34 34 34 34 34 35 36 35 35 36 35 35 34 34 34 34 34 34 34 35 35 35 33 33
Wind_Direction
220 219 214 216 218 210 210 209 212 214 214 240 252 254 264 277 292 315 325 334 352 3 11 16 17 20 27 34 41 44 48 50 52 53 55 55 57 55 57 63 67 69 71 61
226 221 216 217 221 222 221 223 227 232 223 238 245 243 247 259 272 289 305 316 328 341 355 360 359 0 7 16 30 35 40 40 40 44 46 47 47 46 50 51 45 50 51 45
233 227 223 223 222 223 225 234 236 241 232 237 245 242 240 250 264 269 283 297 307 325 331 339 339 337 337 344 4 18 25 29 28 28 29 33 35 32 29 26 26 19 17 18
235 230 229 228 226 227 233 240 243 243 239 240 238 240 242 248 250 252 262 278 286 301 311 320 327 327 318 311 320 339 348 357 2 6 11 13 15 16 16 11 5 359 353 344
236 233 232 233 232 234 237 241 246 246 243 241 241 244 247 245 246 249 255 267 272 284 298 305 312 313 305 296 294 302 312 321 326 330 337 344 347 350 352 350 346 340 332 322
237 234 234 237 237 235 237 242 247 248 245 244 243 248 251 250 249 254 257 263 264 270 285 292 295 299 294 289 285 284 293 298 301 302 303 306 313 321 324 326 328 325 321 314
238 233 234 237 237 236 239 243 246 248 245 245 244 248 253 254 253 252 254 258 262 265 277 276 271 280 283 285 284 280 281 286 289 291 291 290 292 299 301 303 306 306 305 301
238 236 236 239 242 244 242 245 246 250 249 245 243 249 253 254 253 254 256 261 263 267 271 271 268 276 277 282 282 282 277 277 279 284 287 288 288 288 288 290 295 296 295 292
240 236 236 240 244 245 246 244 248 253 253 253 248 247 250 253 255 257 257 264 263 262 264 268 269 272 273 276 280 282 281 277 276 278 281 282 284 285 284 286 288 290 289 288
240 236 231 233 238 242 244 245 246 250 254 255 254 251 250 252 253 256 258 257 258 258 260 264 266 269 270 270 273 278 278 276 276 275 275 277 278 280 280 282 281 282 282 283
241 238 232 232 235 238 241 244 242 246 251 256 260 255 255 258 261 261 259 259 258 257 257 261 264 267 269 270 271 274 275 274 275 275 275 274 276 275 276 278 279 280 278 279
243 242 238 235 236 238 238 239 241 246 250 255 259 259 257 261 264 264 261 261 258 261 262 262 264 268 269 269 270 271 273 274 274 273 274 274 274 275 276 277 277 278 278 278
244 245 245 240 237 237 237 236 241 248 250 252 256 259 261 261 263 264 266 266 263 265 263 267 268 267 268 268 269 269 269 270 271 271 273 274 274 275 275 277 278 278 281 280
244 245 247 245 241 237 235 236 238 243 247 250 254 257 260 263 264 266 265 264 265 267 267 270 270 270 269 266 268 270 271 271 269 270 270 271 271 273 274 276 277 279 281 282
246 247 248 247 244 242 241 239 238 241 244 248 251 256 260 262 265 267 268 269 269 267 268 270 271 272 273 271 269 269 269 268 268 269 269 270 269 269 270 272 275 277 279 279
250 251 250 249 246 244 243 238 237 241 244 248 250 253 257 261 263 266 268 270 271 269 270 271 273 272 270 270 268 267 267 266 266 267 268 268 267 267 268 271 273 276 278 278
252 252 252 251 249 247 244 240 239 241 244 248 251 254 257 258 261 265 269 270 271 271 272 271 272 274 270 270 269 267 268 267 267 268 268 268 268 268 271 271 272 275 276 276
255 256 256 254 251 248 245 242 245 247 247 249 252 255 258 259 260 263 267 268 269 269 269 269 269 270 270 269 268 268 268 268 268 268 269 271 272 272 271 271 271 273 274 274
255 256 256 255 253 252 248 247 248 250 250 252 255 257 260 261 262 264 266 268 270 272 271 267 267 269 269 267 266 267 267 268 268 269 269 269 271 272 271 271 272 271 272 273
256 256 256 256 254 253 251 250 250 252 253 254 256 258 260 261 261 263 265 266 267 270 270 269 268 271 271 267 264 264 266 268 268 268 268 268 269 270 271 271 272 273 272 271
256 256 257 256 256 254 253 254 254 253 255 256 257 258 260 261 264 264 265 265 266 268 269 269 270 271 271 268 267 267 267 268 269 269 269 268 269 269 269 270 271 272 272 272
256 257 257 256 255 255 255 255 255 255 256 257 258 257 258 261 263 265 266 268 269 268 269 269 269 270 271 270 268 269 268 268 270 271 270 269 269 270 270 270 271 271 270 272
256 256 256 255 256 256 255 255 255 256 256 258 259 258 259 260 263 264 266 267 268 268 269 270 270 270 270 271 271 270 268 269 270 270 271 271 271 271 273 274 274 272 270 271
254 255 255 255 255 256 256 256 256 256 258 259 259 259 260 260 261 263 264 265 267 268 269 270 270 270 270 270 270 270 270 268 269 270 272 273 272 273 274 274 274 274 271 271
254 253 253 254 254 254 255 256 257 257 258 259 259 260 260 261 261 262 264 265 266 267 268 269 270 269 269 269 270 270 269 268 269 271 273 273 273 274 274 273 274 275 274 273
252 252 251 253 254 256 257 257 257 258 257 258 258 258 259 260 261 262 264 266 267 267 269 271 271 270 270 269 270 269 267 268 270 270 272 272 273 274 274 274 274 273 272 273
Height
5896 5897 5898 5901 5902 5904 5905 5906 5907 5908 5908 5908 5908 5910 5909 5910 5910 5911 5911 5912 5911 5911 5910 5909 5908 5907 5906 5905 5904 5904 5903 5902 5901 5901 5900 5899 5899 5898 5897 5897 5896 5895 5895 5895
5893 5894 5896 5897 5898 5900 5902 5903 5904 5905 5905 5906 5906 5907 5907 5908 5908 5909 5910 5910 5910 5910 5909 5908 5908 5907 5906 5906 5905 5904 5903 5903 5902 5902 5901 5900 5899 5899 5898 5897 5897 5896 5895 5895
5889 5892 5892 5893 5895 5896 5898 5900 5901 5902 5903 5903 5904 5904 5904 5905 5906 5906 5907 5908 5909 5908 5908 5907 5907 5906 5905 5905 5905 5904 5903 5903 5902 5902 5901 5900 5900 5899 5898 5897 5897 5896 5895 5894
5885 5887 5888 5889 5891 5893 5894 5897 5898 5899 5899 5900 5901 5901 5902 5901 5902 5902 5903 5904 5905 5906 5906 5906 5905 5905 5904 5904 5903 5903 5903 5902 5902 5901 5901 5900 5899 5899 5898 5897 5896 5895 5894 5894
5882 5883 5884 5885 5888 5889 5890 5892 5893 5894 5894 5896 5897 5897 5898 5898 5898 5899 5900 5900 5901 5902 5903 5903 5903 5903 5903 5903 5902 5902 5902 5901 5901 5900 5900 5899 5898 5898 5897 5896 5895 5894 5893 5892
5877 5879 5880 5881 5883 5884 5886 5887 5887 5888 5889 5891 5893 5893 5894 5894 5895 5895 5896 5896 5898 5899 5900 5900 5900 5900 5901 5901 5900 5900 5900 5900 5899 5899 5898 5897 5896 5896 5895 5895 5894 5893 5892 5891
5873 5874 5875 5877 5878 5880 5881 5883 5883 5883 5884 5886 5888 5888 5890 5891 5891 5891 5891 5892 5894 5895 5895 5896 5896 5897 5897 5897 5897 5897 5897 5897 5897 5896 5895 5895 5894 5893 5893 5892 5891 5891 5890 5888
5868 5870 5872 5872 5874 5875 5876 5878 5879 5879 5880 5882 5883 5883 5886 5885 5886 5886 5886 5888 5889 5890 5891 5892 5892 5893 5894 5894 5894 5894 5894 5893 5893 5893 5892 5892 5891 5890 5889 5888 5888 5887 5887 5886
5862 5865 5867 5868 5869 5870 5871 5872 5873 5874 5874 5876 5877 5878 5880 5880 5881 5882 5882 5883 5884 5886 5887 5888 5888 5889 5890 5890 5890 5890 5890 5889 5889 5889 5888 5888 5888 5887 5886 5885 5884 5883 5882 5882
5857 5859 5861 5863 5864 5865 5866 5867 5868 5869 5869 5869 5871 5872 5874 5875 5876 5877 5878 5878 5879 5880 5881 5882 5884 5884 5884 5885 5885 5885 5885 5884 5884 5884 5883 5883 5883 5883 5882 5880 5880 5879 5878 5878
5851 5853 5856 5857 5858 5860 5861 5862 5862 5863 5863 5864 5865 5869 5869 5870 5870 5871 5872 5873 5874 5874 5875 5876 5877 5878 5878 5879 5879 5879 5879 5878 5878 5878 5878 5878 5877 5877 5876 5876 5875 5874 5873 5873
5845 5847 5849 5851 5853 5854 5855 5855 5857 5858 5858 5859 5859 5864 5863 5864 5864 5864 5865 5866 5867 5867 5867 5868 5869 5871 5871 5872 5873 5873 5873 5872 5872 5872 5872 5872 5872 5871 5871 5870 5869 5869 5868 5867
5839 5841 5843 5845 5849 5849 5849 5850 5851 5851 5852 5853 5853 5857 5856 5856 5857 5857 5858 5859 5859 5858 5859 5860 5861 5862 5863 5864 5865 5866 5866 5866 5865 5865 5866 5866 5866 5865 5864 5864 5862 5861 5861 5861
5833 5834 5836 5838 5839 5840 5842 5843 5844 5844 5845 5845 5847 5848 5849 5849 5849 5850 5851 5851 5851 5852 5852 5852 5853 5854 5855 5856 5857 5858 5859 5858 5858 5858 5858 5858 5859 5858 5857 5856 5856 5855 5855 5854
5825 5826 5828 5830 5832 5833 5834 5836 5837 5837 5838 5838 5839 5840 5842 5842 5842 5843 5843 5843 5844 5844 5844 5845 5845 5846 5846 5847 5849 5850 5850 5851 5851 5851 5851 5850 5851 5850 5850 5849 5849 5848 5847 5847
5816 5817 5819 5821 5823 5825 5827 5829 5830 5830 5831 5831 5832 5834 5835 5835 5835 5835 5836 5836 5837 5837 5837 5837 5837 5837 5837 5838 5839 5841 5841 5842 5843 5843 5842 5842 5841 5841 5841 5841 5841 5840 5839 5839
5807 5808 5810 5812 5814 5815 5818 5821 5822 5822 5823 5824 5824 5826 5827 5827 5828 5828 5828 5829 5829 5830 5829 5829 5828 5827 5828 5828 5830 5831 5832 5833 5833 5833 5833 5832 5832 5832 5831 5831 5831 5831 5831 5830
5798 5799 5800 5802 5805 5806 5812 5812 5812 5813 5814 5815 5816 5817 5818 5819 5819 5820 5820 5820 5820 5821 5820 5819 5819 5819 5819 5819 5820 5821 5822 5823 5823 5823 5822 5822 5822 5822 5821 5821 5822 5822 5821 5821
5788 5789 5790 5791 5793 5795 5800 5802 5803 5803 5804 5806 5807 5808 5809 5809 5810 5811 5811 5811 5811 5810 5809 5810 5810 5810 5809 5810 5811 5812 5812 5812 5812 5813 5813 5813 5813 5813 5812 5812 5812 5812 5812 5811
5778 5779 5781 5781 5782 5785 5791 5792 5792 5794 5794 5797 5798 5799 5799 5800 5801 5802 5802 5801 5801 5800 5799 5799 5800 5800 5800 5801 5801 5802 5802 5802 5802 5802 5803 5803 5803 5803 5803 5802 5802 5802 5802 5801
5769 5769 5770 5771 5772 5774 5779 5780 5782 5785 5785 5787 5788 5789 5789 5790 5791 5791 5791 5791 5790 5790 5790 5790 5790 5790 5790 5790 5791 5791 5792 5792 5792 5792 5792 5792 5792 5792 5792 5791 5791 5790 5790 5790
5758 5759 5760 5761 5762 5767 5768 5769 5772 5773 5775 5776 5777 5778 5779 5780 5780 5781 5781 5781 5780 5780 5780 5780 5780 5780 5780 5780 5781 5781 5781 5782 5781 5781 5781 5781 5781 5780 5780 5780 5779 5778 5778 5778
5748 5749 5750 5752 5755 5756 5757 5759 5760 5762 5765 5766 5767 5768 5769 5770 5770 5770 5771 5771 5771 5770 5770 5770 5770 5770 5770 5770 5771 5771 5770 5770 5770 5769 5769 5769 5769 5769 5769 5769 5768 5767 5766 5766
5738 5738 5740 5741 5743 5745 5746 5748 5750 5752 5754 5756 5757 5758 5759 5760 5760 5761 5761 5761 5762 5761 5761 5761 5760 5760 5760 5761 5760 5760 5760 5760 5759 5759 5758 5758 5758 5758 5758 5758 5758 5757 5756 5755
5728 5729 5729 5730 5733 5734 5736 5738 5740 5742 5744 5745 5746 5747 5748 5749 5750 5750 5750 5751 5751 5751 5751 5750 5750 5750 5750 5750 5749 5749 5749 5748 5748 5748 5748 5748 5748 5748 5748 5748 5747 5746 5746 5745
5718 5718 5719 5721 5723 5724 5726 5727 5729 5731 5733 5734 5735 5737 5737 5738 5739 5740 5740 5740 5741 5741 5740 5740 5740 5740 5740 5739 5739 5739 5738 5738 5737 5738 5738 5737 5737 5737 5737 5737 5737 5736 5736 5735